Wind_Speed
40 48 53 55 56 58 54 53 49 42 40 38 40 42 40 37 34 29 24 23 22 20 21 20 19 18 18 19 19 18 17 15 14 12 11 9 7 6 5 3 0 2 3 5 6 8 7 6 4
38 42 51 59 62 64 62 57 52 47 42 42 43 43 41 40 37 30 28 27 25 19 22 21 20 18 18 20 20 20 18 16 14 13 11 9 8 6 5 3 1 2 3 4 6 7 7 6 3
38 38 42 52 64 68 68 63 55 52 47 47 47 46 44 43 39 33 29 29 26 25 22 22 21 19 19 19 21 20 19 17 15 13 11 9 8 6 5 4 3 3 3 4 5 7 7 6 5
36 38 41 45 49 54 66 64 59 53 50 50 50 50 47 44 42 37 31 30 29 24 23 22 23 21 21 21 22 22 20 18 16 14 11 10 9 8 7 6 5 4 3 3 5 7 7 6 6
36 38 40 41 39 43 42 59 64 57 55 55 55 54 50 46 44 40 34 31 29 26 24 24 24 23 22 22 23 23 20 19 17 14 13 12 11 10 9 7 6 5 5 5 6 8 7 7 8
38 38 39 37 37 42 37 43 58 60 59 57 56 56 50 46 47 43 38 35 31 28 26 25 26 25 24 24 25 25 23 20 18 16 14 13 12 11 10 9 7 6 6 7 8 10 9 8 9
40 39 36 36 34 35 34 39 46 58 59 60 60 58 53 48 48 44 42 39 38 35 29 25 26 27 27 26 27 27 25 22 20 17 16 15 13 12 10 9 8 8 8 8 9 11 10 10 10
39 38 35 33 29 31 33 36 43 49 59 63 62 60 55 47 47 45 44 42 40 39 34 32 28 29 30 30 30 29 27 25 22 20 18 17 15 12 11 10 9 9 9 9 9 11 11 11 12
40 36 31 30 28 31 31 35 38 46 58 63 63 61 57 53 49 46 47 47 41 39 36 35 31 31 32 32 32 32 29 28 24 23 20 19 16 14 12 10 9 9 9 8 8 9 12 13 14
38 30 28 27 27 27 29 32 34 42 56 61 64 62 58 54 49 46 49 45 42 37 35 34 33 34 33 34 35 34 32 30 27 25 23 21 18 16 14 12 10 8 8 9 8 10 12 13 14
34 28 26 26 26 23 26 28 31 38 51 59 65 63 59 59 57 50 54 49 46 41 37 36 34 35 35 36 37 36 34 32 30 28 25 24 21 18 16 13 10 8 8 9 10 11 14 15 16
31 30 28 30 28 22 20 25 29 34 46 58 64 64 62 64 63 59 48 52 49 46 43 38 35 37 38 38 39 38 37 34 32 29 27 25 23 20 17 15 11 9 9 10 12 14 15 16 18
32 29 27 24 20 17 16 20 27 32 46 59 62 65 63 64 63 63 50 48 54 50 47 43 38 40 41 41 42 40 38 36 34 31 30 27 24 21 19 15 12 9 10 11 15 17 18 18 20
33 29 25 24 18 13 15 17 26 30 40 55 60 64 64 65 65 61 56 41 47 55 51 50 43 38 42 42 43 42 40 39 36 34 32 28 25 22 20 16 13 13 13 15 18 19 21 23 24
31 28 27 21 18 19 17 16 24 32 36 51 60 63 66 66 64 61 53 51 49 59 57 55 51 43 43 44 46 44 43 41 39 37 34 31 28 25 23 19 17 16 17 18 20 22 23 25 26
29 29 27 24 22 18 18 14 23 33 37 46 59 62 65 68 67 60 56 56 52 65 62 55 55 49 47 48 49 47 45 43 41 39 36 35 32 29 26 23 21 20 20 22 23 24 25 27 26
28 26 28 25 21 19 20 11 21 32 36 41 55 61 62 66 69 64 65 60 54 46 55 60 57 54 50 51 51 49 49 46 44 42 40 37 34 32 30 28 26 25 25 27 28 28 30 32 33
27 24 27 23 23 16 19 15 16 31 33 38 49 58 62 62 67 69 68 71 78 34 56 59 65 59 54 53 53 53 51 49 46 44 42 40 38 36 33 32 32 31 29 31 32 34 37 37 39
28 26 23 24 23 19 19 14 18 19 31 31 44 52 59 61 63 69 72 74 69 65 43 57 53 64 60 54 52 52 51 50 47 46 46 44 41 39 37 36 35 33 33 34 37 40 41 43 45
28 26 24 24 23 20 16 11 16 11 17 31 33 38 50 60 63 64 71 70 69 61 58 51 48 51 66 60 52 52 53 53 52 51 49 47 43 42 41 39 38 37 36 37 41 45 47 48 49
28 26 26 22 19 20 17 14 13 14 13 15 26 36 41 50 61 63 66 66 69 67 63 63 54 55 64 65 61 57 59 58 56 51 49 48 44 43 43 42 41 41 39 41 45 47 47 49 51
26 27 26 25 23 20 18 12 17 13 14 20 21 25 32 43 51 57 65 65 65 66 67 64 68 52 45 65 62 62 55 52 50 49 49 49 49 46 47 44 43 42 42 45 48 46 45 48 46
25 25 25 25 24 22 21 18 16 12 12 15 20 25 29 35 43 52 56 67 67 67 64 67 63 60 48 59 61 61 62 55 56 54 53 53 51 50 49 47 46 45 46 45 39 43 46 36 32
26 24 24 23 22 20 22 20 17 17 14 16 20 21 29 36 39 41 52 60 68 69 66 66 66 64 56 54 66 68 64 61 59 54 52 52 53 52 51 49 48 49 49 48 46 40 40 37 33
26 28 27 23 24 23 22 20 20 18 17 16 16 20 22 31 37 40 42 55 62 61 65 66 58 59 65 62 40 65 67 64 68 58 53 53 55 53 52 52 54 52 51 47 45 38 35 34 36
26 27 29 28 27 24 20 22 21 16 18 19 20 21 17 18 33 37 39 48 56 58 52 63 58 55 59 54 34 55 57 69 64 62 54 55 57 55 57 56 59 57 56 52 44 40 35 34 31
27 28 28 29 25 24 20 15 19 21 19 19 20 20 17 18 21 24 32 41 52 53 53 56 56 58 52 62 62 44 53 50 58 53 46 51 57 60 61 54 57 57 60 53 32 31 29 30 34
29 28 29 33 32 26 23 10 20 20 20 20 19 19 19 19 20 25 23 35 46 48 47 50 52 59 54 52 57 45 40 53 45 44 41 40 43 45 42 38 44 45 43 19 22 31 36 39 41
26 29 30 30 33 34 26 19 21 21 24 23 23 19 18 20 19 20 24 31 42 49 48 46 50 56 52 53 53 50 43 38 35 44 41 26 22 28 24 34 38 27 25 27 29 37 41 44 47
26 28 31 35 32 35 31 13 25 23 21 24 24 22 19 17 18 17 19 28 33 45 44 46 48 49 49 52 49 49 58 50 32 47 35 35 23 27 41 31 27 33 45 46 40 42 45 50 51
Wind_Direction
277 266 259 254 251 251 252 251 247 239 238 233 232 236 232 232 229 226 231 229 239 234 226 227 224 218 212 207 204 199 193 186 183 184 183 182 186 184 183 187 209 356 4 4 6 11 17 14 28
291 272 261 255 250 248 248 246 242 236 232 231 229 232 230 231 232 228 229 231 232 236 226 223 226 218 212 207 205 201 195 191 187 187 187 189 190 194 203 215 264 326 345 358 5 6 1 4 353
301 285 272 261 253 248 247 245 241 233 227 229 226 227 227 225 229 226 228 228 227 227 228 219 221 216 213 211 208 203 197 193 191 189 190 193 200 210 219 236 259 287 318 347 357 349 343 347 339
301 294 286 272 265 256 247 247 239 235 228 226 226 224 226 222 225 223 223 226 225 221 224 221 217 218 215 212 209 203 198 194 193 191 195 202 210 220 229 236 248 265 295 333 342 333 323 332 331
306 304 290 281 266 261 256 245 241 231 221 224 223 223 221 222 224 221 219 220 222 219 221 219 217 215 219 216 209 204 200 196 192 196 200 210 216 224 230 238 252 266 282 299 317 320 312 322 328
309 307 295 291 266 257 264 250 237 232 221 220 222 222 220 218 225 218 219 218 215 215 217 218 220 215 216 218 210 204 200 197 196 197 208 216 220 225 230 237 248 265 280 293 303 317 307 309 321
310 309 300 297 275 253 258 250 236 229 219 218 220 219 217 214 223 221 217 217 214 219 217 221 222 219 215 214 211 205 201 198 196 202 210 216 220 225 228 234 244 258 272 284 299 301 306 306 314
311 309 297 302 269 250 257 246 242 224 216 217 218 217 213 213 221 221 219 218 216 219 225 224 220 220 215 210 209 205 202 200 199 205 205 208 210 213 222 233 243 256 265 278 290 298 303 301 309
317 311 295 297 273 250 255 250 244 222 213 215 217 216 212 209 214 218 218 218 216 214 218 222 220 219 216 211 208 206 203 201 204 206 205 206 205 207 212 223 237 252 266 282 300 312 309 304 303
326 316 296 298 285 258 257 251 241 226 209 215 215 217 210 208 211 219 216 217 214 208 211 214 218 219 215 213 208 208 205 202 206 209 208 209 205 209 213 219 226 240 260 281 297 307 310 309 312
332 320 307 296 288 272 257 252 241 228 210 212 214 218 210 207 207 217 212 210 212 210 210 211 211 216 212 212 210 209 208 205 209 214 212 218 211 215 216 217 227 236 257 278 294 302 304 310 315
339 324 317 305 292 279 263 249 239 228 209 213 214 217 212 207 210 212 207 205 211 213 213 213 209 213 211 210 212 211 210 209 213 217 214 218 216 217 219 219 224 242 267 284 293 295 300 305 308
343 335 322 322 307 272 279 252 238 226 214 215 212 216 215 210 210 221 225 207 208 213 219 217 215 211 210 211 211 212 212 213 214 217 218 216 219 217 217 216 225 245 267 285 298 297 293 292 296
349 341 329 324 318 299 282 260 238 228 227 216 214 215 215 213 214 218 229 227 208 217 216 220 219 219 214 211 214 213 213 216 217 218 217 217 219 221 217 221 235 259 270 282 287 295 296 293 296
351 346 342 324 320 310 292 275 238 229 230 219 216 215 215 216 216 216 219 216 212 216 213 218 218 216 216 214 215 213 214 217 219 219 219 218 223 225 226 233 244 261 274 286 293 289 294 297 297
351 347 346 333 316 312 292 297 247 229 225 227 216 216 216 216 217 214 213 217 220 214 212 212 216 218 213 214 216 215 215 219 220 222 223 223 225 229 234 239 248 257 270 282 287 287 288 291 297
353 350 348 345 329 315 309 305 268 231 225 229 221 218 218 217 219 216 215 216 217 213 213 210 214 217 217 215 216 216 218 219 223 225 226 229 231 233 240 246 254 260 270 285 286 287 286 285 287
354 352 349 353 344 315 318 320 284 238 227 228 228 220 219 219 219 221 220 222 221 213 212 210 214 217 218 218 215 216 219 220 223 227 230 232 236 239 243 249 255 258 269 284 287 288 293 290 288
355 351 351 349 351 346 308 326 294 260 226 228 232 226 224 221 224 223 227 229 230 236 232 207 218 215 222 222 219 219 220 222 225 227 231 234 237 242 246 250 255 260 268 280 287 289 290 291 290
353 354 352 345 342 352 338 309 313 292 249 234 232 238 236 228 227 228 229 232 235 237 233 222 216 212 216 219 220 221 221 223 224 228 231 235 237 242 247 251 255 261 267 280 285 286 288 289 287
344 353 357 355 348 341 352 339 300 294 283 256 248 243 240 239 233 233 234 232 235 235 232 231 215 212 214 219 215 218 221 223 226 229 234 238 239 241 245 249 253 260 269 280 283 284 285 286 287
337 342 349 353 359 351 345 349 316 313 281 265 258 246 245 244 238 238 236 234 234 235 239 239 235 216 226 217 220 217 221 225 229 232 236 238 239 242 245 249 254 258 271 280 279 281 283 285 283
329 333 340 344 344 346 349 348 335 318 297 279 265 257 250 246 245 240 241 233 235 236 237 238 241 229 230 217 218 220 219 219 226 228 232 237 241 244 247 249 252 259 272 276 283 281 277 275 280
329 325 330 336 345 343 336 347 348 340 315 291 282 268 254 254 250 241 240 239 233 237 237 239 238 239 229 222 217 220 223 219 222 227 232 237 241 243 246 249 255 262 271 269 282 284 273 275 274
324 327 325 329 336 345 342 339 345 350 336 317 305 291 277 255 249 247 237 239 238 237 240 239 242 239 241 216 221 226 226 226 227 225 231 236 242 245 250 252 254 260 261 270 274 274 271 271 271
318 324 327 326 328 334 338 337 332 335 338 334 325 313 296 268 246 244 236 233 238 240 237 239 241 241 247 215 222 211 225 231 232 234 234 240 244 251 255 254 258 262 265 261 266 268 267 269 270
312 316 315 321 326 328 337 344 317 328 333 339 338 332 311 301 272 255 240 226 236 238 237 240 240 243 243 253 242 240 226 231 230 236 230 246 253 255 258 262 260 257 261 264 253 257 266 275 279
306 309 309 316 319 326 334 337 331 325 330 331 336 332 324 302 294 259 240 225 223 232 229 234 235 240 239 245 260 259 226 223 233 224 229 227 233 238 251 256 259 258 245 236 270 264 267 275 283
301 304 300 307 310 311 320 350 330 308 320 323 322 324 324 314 299 282 239 224 221 226 227 228 233 238 241 245 244 248 224 226 244 218 216 220 269 253 229 241 240 240 236 272 263 267 277 278 283
297 295 298 302 310 311 309 359 336 321 309 308 318 318 318 309 305 284 248 223 223 220 221 225 229 237 240 245 248 258 233 240 253 225 223 269 260 238 229 241 238 265 269 279 278 281 276 278 279
Height
5779 5776 5775 5777 5779 5775 5777 5782 5791 5801 5805 5807 5807 5807 5816 5818 5821 5826 5828 5830 5831 5833 5835 5837 5839 5841 5843 5846 5848 5850 5852 5853 5855 5858 5859 5861 5862 5863 5864 5864 5865 5866 5866 5866 5866 5866 5865 5865 5865
5768 5765 5762 5761 5762 5762 5766 5772 5779 5789 5795 5797 5799 5801 5809 5812 5816 5820 5824 5826 5828 5830 5832 5834 5837 5838 5841 5844 5846 5849 5851 5853 5854 5856 5858 5859 5861 5862 5863 5864 5864 5865 5866 5866 5866 5865 5865 5865 5864
5757 5753 5750 5747 5746 5749 5753 5760 5769 5777 5783 5785 5789 5792 5798 5805 5810 5815 5819 5821 5823 5826 5828 5830 5833 5836 5839 5842 5845 5847 5849 5851 5853 5855 5857 5858 5860 5861 5862 5863 5864 5864 5865 5865 5865 5864 5864 5864 5863
5745 5741 5738 5734 5735 5738 5741 5747 5757 5765 5774 5776 5780 5784 5790 5798 5802 5808 5813 5816 5819 5821 5824 5827 5830 5834 5837 5839 5842 5845 5847 5849 5851 5853 5855 5857 5858 5860 5861 5862 5863 5863 5864 5864 5864 5863 5863 5863 5862
5733 5729 5723 5721 5725 5726 5726 5732 5739 5749 5758 5762 5767 5774 5781 5790 5795 5801 5806 5810 5814 5817 5821 5824 5827 5830 5834 5837 5839 5842 5845 5847 5849 5851 5853 5855 5856 5858 5859 5860 5861 5862 5863 5863 5863 5863 5862 5862 5862
5724 5720 5715 5712 5713 5714 5717 5714 5721 5732 5744 5751 5757 5764 5775 5783 5788 5793 5799 5804 5808 5812 5816 5820 5823 5826 5830 5834 5837 5839 5842 5845 5847 5849 5851 5853 5854 5856 5857 5859 5860 5861 5861 5862 5862 5862 5861 5861 5861
5717 5712 5708 5703 5703 5704 5704 5703 5706 5716 5731 5738 5744 5754 5766 5774 5779 5787 5792 5796 5801 5807 5811 5815 5819 5823 5826 5830 5833 5836 5839 5842 5844 5847 5849 5850 5852 5854 5855 5857 5858 5859 5860 5860 5861 5860 5860 5860 5859
5709 5704 5701 5696 5694 5695 5694 5694 5696 5703 5717 5725 5733 5743 5757 5767 5773 5780 5786 5791 5796 5801 5805 5809 5813 5818 5821 5825 5829 5833 5836 5839 5841 5844 5846 5848 5850 5852 5853 5855 5856 5857 5858 5858 5858 5858 5858 5858 5858
5702 5697 5693 5690 5686 5686 5686 5688 5690 5694 5707 5715 5723 5734 5747 5758 5763 5769 5777 5784 5790 5795 5800 5804 5808 5812 5817 5821 5825 5829 5832 5835 5838 5841 5843 5845 5847 5849 5851 5852 5853 5854 5855 5856 5856 5856 5856 5856 5856
5696 5691 5686 5684 5680 5679 5680 5682 5685 5688 5696 5706 5716 5724 5738 5749 5757 5763 5768 5779 5785 5790 5793 5797 5802 5807 5812 5817 5820 5825 5828 5831 5835 5838 5841 5843 5844 5846 5848 5849 5850 5851 5852 5853 5853 5853 5854 5854 5854
5692 5685 5681 5679 5674 5673 5674 5676 5679 5682 5691 5699 5708 5715 5729 5740 5747 5748 5760 5770 5778 5783 5786 5791 5795 5801 5806 5811 5816 5820 5824 5827 5831 5834 5837 5840 5842 5843 5845 5846 5847 5848 5849 5850 5851 5851 5851 5851 5851
5689 5680 5678 5673 5670 5668 5668 5669 5673 5677 5686 5688 5698 5706 5719 5728 5736 5736 5747 5758 5769 5776 5780 5784 5788 5795 5800 5805 5810 5815 5820 5823 5827 5830 5833 5836 5838 5840 5841 5842 5844 5846 5847 5847 5848 5848 5849 5849 5848
5683 5679 5674 5669 5664 5663 5664 5665 5666 5670 5674 5675 5686 5696 5709 5718 5726 5729 5737 5747 5758 5767 5774 5779 5783 5787 5793 5798 5803 5809 5814 5818 5822 5826 5829 5832 5835 5836 5838 5839 5841 5842 5843 5844 5845 5845 5845 5845 5845
5681 5676 5672 5668 5663 5662 5661 5660 5662 5666 5664 5670 5680 5689 5701 5711 5719 5725 5729 5737 5750 5758 5765 5772 5777 5782 5788 5793 5798 5803 5808 5813 5816 5820 5823 5827 5830 5832 5834 5836 5837 5838 5840 5840 5841 5841 5841 5841 5841
5679 5675 5669 5666 5662 5659 5658 5657 5657 5657 5661 5665 5672 5680 5692 5703 5711 5721 5728 5736 5741 5747 5754 5763 5770 5774 5781 5787 5792 5796 5801 5806 5810 5814 5817 5821 5825 5827 5830 5832 5833 5835 5836 5837 5837 5837 5837 5837 5836
5678 5673 5668 5664 5661 5657 5654 5654 5650 5651 5655 5659 5665 5673 5684 5695 5704 5715 5721 5725 5733 5733 5743 5752 5761 5768 5771 5778 5785 5789 5794 5799 5804 5808 5812 5815 5818 5821 5824 5827 5828 5830 5831 5832 5832 5832 5832 5832 5831
5677 5672 5667 5661 5658 5656 5652 5651 5648 5646 5650 5654 5660 5668 5677 5689 5698 5707 5712 5716 5721 5718 5734 5744 5752 5760 5765 5769 5775 5781 5786 5792 5797 5802 5806 5810 5812 5815 5818 5821 5823 5825 5826 5827 5827 5827 5827 5826 5826
5676 5672 5666 5661 5657 5654 5651 5649 5645 5645 5649 5653 5657 5663 5672 5682 5691 5697 5702 5703 5697 5705 5723 5735 5741 5750 5755 5761 5765 5771 5779 5785 5790 5795 5799 5803 5806 5808 5811 5814 5816 5817 5819 5820 5820 5820 5820 5819 5819
5676 5671 5666 5661 5656 5654 5649 5648 5645 5644 5648 5652 5657 5661 5667 5676 5682 5689 5693 5694 5700 5706 5714 5720 5725 5736 5747 5754 5759 5765 5773 5779 5783 5787 5791 5794 5798 5802 5804 5806 5809 5810 5811 5812 5812 5812 5811 5811 5810
5677 5671 5666 5661 5656 5653 5650 5648 5645 5645 5647 5650 5653 5656 5660 5666 5673 5678 5682 5687 5695 5702 5704 5709 5706 5717 5731 5743 5751 5758 5762 5767 5771 5776 5782 5787 5790 5795 5797 5800 5802 5803 5803 5804 5804 5803 5802 5801 5800
5677 5671 5666 5662 5658 5653 5651 5647 5645 5645 5645 5647 5649 5650 5653 5656 5663 5667 5672 5680 5683 5692 5698 5700 5709 5712 5721 5731 5735 5743 5749 5755 5763 5771 5775 5778 5782 5785 5788 5791 5793 5795 5796 5796 5796 5794 5793 5791 5790
5676 5670 5665 5662 5657 5653 5650 5649 5644 5644 5643 5644 5644 5645 5646 5647 5653 5657 5661 5670 5675 5682 5687 5692 5695 5698 5712 5719 5727 5732 5742 5751 5758 5761 5763 5768 5772 5775 5779 5782 5784 5787 5788 5787 5786 5785 5783 5781 5780
5674 5669 5664 5660 5657 5653 5649 5647 5644 5642 5641 5640 5640 5641 5641 5640 5643 5651 5651 5660 5666 5670 5678 5683 5690 5694 5699 5707 5716 5724 5729 5735 5743 5746 5753 5758 5763 5765 5769 5772 5775 5777 5779 5779 5777 5776 5774 5772 5771
5671 5666 5662 5659 5656 5653 5648 5645 5643 5640 5638 5636 5635 5635 5635 5634 5634 5641 5643 5647 5657 5662 5669 5675 5684 5688 5695 5702 5705 5713 5721 5723 5728 5736 5742 5748 5752 5754 5758 5762 5765 5768 5769 5769 5768 5766 5766 5765 5764
5668 5662 5659 5656 5653 5651 5647 5644 5641 5638 5634 5632 5630 5627 5627 5625 5624 5629 5636 5639 5646 5655 5660 5666 5673 5682 5686 5693 5700 5707 5712 5714 5719 5724 5730 5735 5739 5743 5747 5750 5753 5756 5759 5759 5759 5758 5758 5755 5755
5664 5661 5656 5651 5649 5648 5646 5642 5638 5635 5632 5628 5624 5621 5618 5616 5615 5618 5626 5631 5634 5644 5651 5658 5667 5676 5679 5684 5690 5698 5702 5706 5712 5718 5722 5726 5730 5734 5738 5739 5740 5744 5746 5747 5748 5749 5748 5748 5746
5659 5657 5653 5649 5647 5643 5643 5641 5637 5633 5629 5624 5620 5616 5612 5611 5609 5609 5614 5622 5626 5633 5643 5650 5659 5666 5671 5675 5682 5691 5696 5699 5704 5708 5714 5718 5721 5724 5727 5729 5729 5731 5735 5735 5736 5738 5741 5740 5738
5654 5652 5649 5645 5641 5638 5637 5636 5632 5629 5626 5621 5617 5613 5609 5606 5602 5602 5605 5611 5617 5622 5632 5642 5653 5660 5666 5673 5679 5683 5686 5694 5697 5700 5704 5709 5712 5714 5717 5718 5720 5720 5722 5724 5727 5732 5732 5732 5730
5649 5646 5643 5642 5639 5634 5632 5633 5626 5624 5622 5619 5614 5610 5606 5601 5599 5596 5597 5600 5607 5613 5622 5633 5642 5650 5659 5665 5673 5677 5680 5687 5690 5691 5695 5697 5701 5705 5707 5711 5712 5714 5716 5716 5716 5722 5722 5721 5717
5642 5640 5638 5634 5635 5630 5629 5630 5624 5621 5616 5614 5611 5607 5602 5598 5595 5593 5593 5596 5600 5609 5615 5624 5633 5642 5649 5657 5663 5665 5670 5675 5682 5686 5687 5690 5695 5698 5699 5702 5704 5708 5707 5705 5707 5709 5708 5707 5703